Resolute CS, Nunavut

8:00 PM MST on January 21, 2018 (GMT -0700)
Resolute CS

Weather History for CXRB - October, 2013

Change the Weather History Date:

Sunday, October 6, 2013

  Actual Average (CYRB) Record (CYRB)
Temperature  
Mean Temperature 8 °F -  
Max Temperature 13 °F 15 °F 30 °F (2004)
Min Temperature 3 °F 7 °F 0 °F (2005)
Degree Days  
Heating Degree Days 57    
Moisture  
Dew Point 3 °F    
Average Humidity 76    
Maximum Humidity 89    
Minimum Humidity 58    
Precipitation  
Precipitation 0.01 in - - ()
Sea Level Pressure  
Sea Level Pressure 30.17 in    
Wind  
Wind Speed 4 mph ()    
Max Wind Speed 7 mph    
Max Gust Speed -    
Averages and records for this station are not official NWS values.
T = Trace of Precipitation, MM = Missing Value Source: Averaged Metar Reports

Daily Weather History Graph

Daily Weather History Graph

Search for Another Location

Airport or City:

Trip Planner

Search our weather history database for the weather conditions in past years. The results will help you decide how hot, cold, wet, or windy it might be!

Date:

Astronomy

Oct. 06, 2013 Rise Set
Actual Time 7:14 AM MDT 4:59 PM MDT
Civil Twilight 5:54 AM MDT 6:18 PM MDT
Nautical Twilight 4:19 AM MDT 7:52 PM MDT
Astronomical Twilight 2:18 AM MDT 9:49 PM MDT
Moon 11:38 AM MDT (10/6) 3:09 PM MDT (10/6)
Length of Visible Light 12h 24m
Length of Day
9h 45m
Waxing Crescent, 4% of the Moon is Illuminated
Oct 6
Waxing Crescent
Oct 11
First Quarter
Oct 18
Full
Oct 26
Last Quarter
Nov 3
New

Hourly Weather History & Observations

Time (MDT) Temp. Windchill Dew Point Humidity Pressure Visibility Wind Dir Wind Speed Gust Speed Precip Events Conditions
12:00 AM 13 °F - 8 °F 73% 30.13 in - South 3.5 mph - -  
12:00 AM 12.7 °F 6.7 °F 8.2 °F 82% 30.13 in - South 3.5 mph - N/A   Unknown
1:00 AM 7.2 °F 0.3 °F 3.2 °F 84% 30.13 in - ESE 3.5 mph - N/A   Unknown
2:00 AM 7.7 °F - 5.0 °F 89% 30.13 in - SE 2.3 mph - N/A   Unknown
3:00 AM 8.1 °F -0.5 °F 4.3 °F 85% 30.14 in - East 4.6 mph - N/A   Unknown
4:00 AM 5.5 °F -6.3 °F 0.9 °F 81% 30.15 in - ENE 6.9 mph - N/A   Unknown
5:00 AM 9.1 °F - 4.8 °F 83% 30.15 in - ENE 2.3 mph - N/A   Unknown
6:00 AM 9 °F - 3 °F 67% 30.16 in - ESE 4.6 mph - -  
6:00 AM 8.6 °F 0.1 °F 3.2 °F 79% 30.16 in - ESE 4.6 mph - N/A   Unknown
7:00 AM 8.8 °F 0.4 °F 4.1 °F 81% 30.16 in - ESE 4.6 mph - N/A   Unknown
8:00 AM 7.5 °F - 3.9 °F 85% 30.17 in - SE 2.3 mph - N/A   Unknown
9:00 AM 7.7 °F 1.0 °F 1.0 °F 74% 30.17 in - East 3.5 mph - 0.01 in   Unknown
10:00 AM 7.3 °F - 3.0 °F 82% 30.17 in - East 2.3 mph - N/A   Unknown
11:00 AM 7.9 °F - 0.7 °F 72% 30.17 in - East 2.3 mph - N/A   Unknown
12:00 PM 9 °F - 1 °F 58% 30.18 in - East 4.6 mph - -  
12:00 PM 9.1 °F 0.8 °F 1.0 °F 70% 30.18 in - East 4.6 mph - N/A   Unknown
1:00 PM 9.9 °F 3.4 °F 1.4 °F 69% 30.19 in - East 3.5 mph - N/A   Unknown
2:00 PM 9.7 °F 1.4 °F 0.5 °F 66% 30.19 in - ESE 4.6 mph - N/A   Unknown
3:00 PM 10.2 °F 2.0 °F 1.0 °F 66% 30.20 in - ESE 4.6 mph - N/A   Unknown
4:00 PM 9.0 °F 0.6 °F 0.9 °F 70% 30.20 in - East 4.6 mph - N/A   Unknown
5:00 PM 8.8 °F 2.2 °F 1.6 °F 73% 30.21 in - East 3.5 mph - N/A   Unknown
6:00 PM 9.0 °F 0.6 °F 2.1 °F 74% 30.21 in - ESE 4.6 mph - N/A   Unknown
7:00 PM 9.0 °F 2.4 °F 1.8 °F 73% 30.21 in - ESE 3.5 mph - N/A   Unknown
8:00 PM 6.8 °F -3.5 °F 0.7 °F 76% 30.21 in - ESE 5.8 mph - N/A   Unknown
9:00 PM 7.2 °F -4.3 °F 1.4 °F 77% 30.21 in - ESE 6.9 mph - 0.01 in   Unknown
10:00 PM 8.1 °F -2.0 °F 1.8 °F 75% 30.20 in - ESE 5.8 mph - N/A   Unknown
11:00 PM 7.2 °F -1.5 °F 1.4 °F 77% 30.20 in - ESE 4.6 mph - N/A   Unknown